Location: Windsor
(43.2292°N, 89.3015°W)
Time: 19:31:26
(UTC+00:00)

NOAA 15 - Pass Details

Date: 01 July 2022
Orbit: 796 x 812 km, 98.6° (Epoch: 09 August)

Event Time Altitude Azimuth Distance (km) Brightness Sun altitude
Rises 02:31:12 0° 222° (SW) 3,317 7.8 -8.0°
Reaches altitude 10° 02:35:49 10° 260° (W) 2,397 7.6 -8.6°
Maximum altitude 02:36:59 11° 273° (W) 2,351 7.8 -8.8°
Drops below altitude 10° 02:38:10 10° 286° (WNW) 2,403 8.2 -8.9°
Sets 02:42:50 0° 324° (NW) 3,344 9.9 -9.5°
